Regional Weather Roundup
Issued by NWS

Home | Current Version | Previous Version | Graphics & Text | Print | Product List | Glossary On
Versions: 1 2 3 4 5 6 7 8 9 10 11 12 13 14 15 16 17 18 19 20 21 22 23 24 25 26 27 28 29 30 31 32 33 34 35 36 37 38 39 40 41 42 43 44 45 46 47 48 49 50
000
ASUS43 KTOP 230959
RWRKS

WEATHER ROUNDUP FOR KANSAS
NATIONAL WEATHER SERVICE GOODLAND KS
500 AM CDT SUN JUL 23 2017

NOTE:  "FAIR" INDICATES FEW OR NO CLOUDS BELOW 12,000 FEET WITH NO
SIGNIFICANT WEATHER AND/OR OBSTRUCTIONS TO VISIBILITY.

KSZ001>006-013>018-027>032-041>047-231100-
NORTHWEST KANSAS

CITY           SKY/WX    TMP DP  RH WIND       PRES   REMARKS
GOODLAND       PTCLDY    60  54  80 W3        30.10S
HAYS           CLOUDY    71  67  87 NW3       29.99R
HILL CITY      CLOUDY    68  68 100 NW6       30.01S FOG
RUSSELL        PTCLDY    71  67  87 NW10      29.96S
$$

KSZ061>065-074>080-084>089-231100-
SOUTHWEST KANSAS

CITY           SKY/WX    TMP DP  RH WIND       PRES   REMARKS
DODGE CITY     CLOUDY    68  65  90 NW3       29.99F
ELKHART          N/A     67  51  56 NW9         N/A
GARDEN CITY    CLEAR     67  63  87 N8        30.01F
LIBERAL        CLOUDY    69  67  93 N6        29.99F
$$

KSZ066>073-081>083-090>101-231100-
SOUTHEAST KANSAS

CITY           SKY/WX    TMP DP  RH WIND       PRES   REMARKS
CHANUTE        TSTM      75  65  70 W14       29.89F
COFFEYVILLE    MOCLDY    75  67  76 N9        29.91R
HUTCHINSON     LGT RAIN  70  67  90 E9        29.94F
MEDICINE LODGE   N/A     73  64  73 NE13      29.92R
NEWTON         TSTM      69  68  96 SW21      29.97F
PARSONS        CLOUDY    73  69  87 W3        29.93R
WICHITA INTL   CLOUDY    75  67  76 N13       29.96R
WICHITA JABRA  CLOUDY    72  66  81 N16G28    29.97R
WINFIELD       CLEAR     74  69  85 N12       29.93R
$$

KSZ007>012-019>026-033>040-048>060-102>105-231100-
NORTHEAST KANSAS

CITY           SKY/WX    TMP DP  RH WIND       PRES   REMARKS
CONCORDIA      CLEAR     68  67  96 W7        29.96R
EMPORIA        CLOUDY    72  65  78 CALM      29.92R
LAWRENCE       CLOUDY    71  69  93 E3        29.91R
MANHATTAN      PTCLDY    68  67  96 CALM      29.94R
OLATHE IND     MOCLDY    71  68  90 S5        29.92F
OLATHE EXE     MOCLDY    70  69  97 S5        29.92F
SALINA         CLOUDY    73  69  87 NW3       29.96R
TOPEKA BILLARD CLOUDY    72  71  97 CALM      29.92R
TOPEKA FORBES  MOCLDY    72  70  93 E7        29.92S
$$




USA.gov is the U.S. government's official web portal to all federal, state and local government web resources and services.